This is the latest recevied weather packets stored in our database for station/object DC7RY. If no packets are shown the sender has not sent any weather packets the latest 10 day(s).
| Time | Temp. | Humidity | Pressure | Rain* | Wind** | Luminosity | Snow |
|---|---|---|---|---|---|---|---|
| 1777757431 | 10.56° C | 78% | 1011.1 hPa | 0 mm | - | 0 W/m² | - |
| 1777756821 | 10.56° C | 77% | 1011.1 hPa | 0 mm | - | 0 W/m² | - |
| 1777756227 | 11.11° C | 74% | 1011.2 hPa | 0 mm | - | 0 W/m² | - |
| 1777755619 | 11.11° C | 73% | 1011 hPa | 0 mm | - | 0 W/m² | - |
| 1777755026 | 11.67° C | 73% | 1011 hPa | 0 mm | - | 0 W/m² | - |
| 1777754416 | 11.67° C | 73% | 1011.1 hPa | 0 mm | - | 0 W/m² | - |
| 1777753822 | 12.22° C | 71% | 1011.2 hPa | 0 mm | - | 0 W/m² | - |
| 1777753229 | 12.22° C | 71% | 1011.2 hPa | 0 mm | - | 0 W/m² | - |
| 1777752630 | 12.78° C | 70% | 1011.3 hPa | 0 mm | - | 0 W/m² | - |
| 1777752022 | 13.33° C | 68% | 1011.3 hPa | 0 mm | - | 0 W/m² | - |
| 1777751428 | 13.89° C | 68% | 1011.3 hPa | 0 mm | - | 0 W/m² | - |
| 1777750819 | 14.44° C | 67% | 1011.3 hPa | 0 mm | - | 0 W/m² | - |
| 1777750226 | 15° C | 66% | 1011.4 hPa | 0 mm | - | 0 W/m² | - |
| 1777749618 | 15.56° C | 63% | 1011.3 hPa | 0 mm | - | 0 W/m² | - |
| 1777749022 | 16.11° C | 63% | 1011.4 hPa | 0 mm | - | 0 W/m² | - |
| 1777748430 | 17.22° C | 61% | 1011.4 hPa | 0 mm | - | 0 W/m² | - |
| 1777747822 | 18.33° C | 58% | 1011.3 hPa | 0 mm | - | 0 W/m² | - |
| 1777747228 | 19.44° C | 54% | 1011.3 hPa | 0 mm | - | 0 W/m² | - |
| 1777746619 | 20.56° C | 50% | 1011.3 hPa | 0 mm | - | 4 W/m² | - |
| 1777746027 | 22.22° C | 47% | 1011.3 hPa | 0 mm | - | 12 W/m² | - |
| 1777745419 | 24.44° C | 46% | 1011.5 hPa | 0 mm | - | 24 W/m² | - |
| 1777744826 | 25.56° C | 38% | 1011.6 hPa | 0 mm | - | 47 W/m² | - |
| 1777744218 | 26.67° C | 33% | 1011.3 hPa | 0 mm | - | 87 W/m² | - |
| 1777743624 | 26.67° C | 32% | 1011.4 hPa | 0 mm | - | 117 W/m² | - |
| 1777743016 | 26.67° C | 31% | 1011.5 hPa | 0 mm | - | 136 W/m² | - |
* Rain latest hour (hover to see other rain measurements)
** Current wind speed in m/s (hover to see current wind gust speed)